| time (UTC) | temp C | wind direction | speed KPH | gust KPH | rain 1hr cm | rain 24hr cm | rain mn cm | humidity % | barometer mb |
| 20260506044515 | 5 | 360 | 0.0 | 0.0 | 0.00 | 0.00 | 0.00 | 86 | 1007.6 |
| 20260506043015 | 5 | 360 | 0.0 | 0.0 | 0.00 | 0.00 | 0.00 | 86 | 1007.5 |
| 20260506041516 | 5 | 360 | 0.0 | 0.0 | 0.00 | 0.00 | 0.00 | 83 | 1007.5 |
| 20260506040015 | 5 | 360 | 0.0 | 0.0 | 0.00 | 0.00 | 0.00 | 83 | 1007.4 |
| 20260506034515 | 5 | 360 | 0.0 | 0.0 | 0.00 | 0.00 | 0.00 | 84 | 1007.5 |
| 20260506033016 | 5 | 360 | 0.0 | 0.0 | 0.00 | 0.00 | 0.00 | 82 | 1007.3 |
| 20260506031515 | 5 | 360 | 0.0 | 1.6 | 0.00 | 0.00 | 0.00 | 82 | 1007.4 |
| 20260506030026 | 5 | 360 | 0.0 | 0.0 | 0.00 | 0.00 | 0.00 | 80 | 1007.3 |
| 20260506024533 | 5 | 360 | 0.0 | 0.0 | 0.00 | 0.00 | 0.00 | 79 | 1007.5 |
| 20260506023016 | 5 | 360 | 0.0 | 0.0 | 0.00 | 0.00 | 0.00 | 78 | 1007.6 |
| 20260506021515 | 5 | 360 | 0.0 | 0.0 | 0.00 | 0.00 | 0.00 | 77 | 1007.6 |
| 20260506020015 | 6 | 360 | 0.0 | 0.0 | 0.00 | 0.00 | 0.00 | 76 | 1007.5 |
| 20260506014518 | 6 | 360 | 0.0 | 0.0 | 0.00 | 0.00 | 0.00 | 76 | 1007.5 |
| 20260506013016 | 6 | 360 | 0.0 | 0.0 | 0.00 | 0.00 | 0.00 | 75 | 1007.2 |
| 20260506011515 | 6 | 360 | 0.0 | 0.0 | 0.00 | 0.00 | 0.00 | 76 | 1006.8 |
| 20260506010017 | 6 | 360 | 0.0 | 0.0 | 0.00 | 0.00 | 0.00 | 74 | 1006.6 |
| 20260506004515 | 6 | 360 | 0.0 | 1.6 | 0.00 | 0.00 | 0.00 | 74 | 1006.4 |
| 20260506003017 | 6 | 360 | 0.0 | 3.2 | 0.00 | 0.00 | 0.00 | 74 | 1006.3 |
| 20260506001518 | 6 | 360 | 0.0 | 6.4 | 0.00 | 0.00 | 0.00 | 77 | 1006.3 |
| 20260506000015 | 6 | 360 | 4.8 | 8.0 | 0.00 | 0.00 | 0.00 | 76 | 1006.2 |
| 20260505234526 | 6 | 360 | 3.2 | 9.7 | 0.00 | 0.00 | 0.00 | 77 | 1006.1 |
| 20260505233019 | 7 | 360 | 4.8 | 6.4 | 0.00 | 0.00 | 0.00 | 77 | 1005.8 |
| 20260505231516 | 7 | 360 | 3.2 | 6.4 | 0.00 | 0.00 | 0.00 | 75 | 1005.9 |
| 20260505230033 | 8 | 360 | 3.2 | 8.0 | 0.00 | 0.00 | 0.00 | 71 | 1005.9 |
| 20260505224516 | 8 | 360 | 3.2 | 8.0 | 0.00 | 0.00 | 0.00 | 69 | 1006.0 |
| 20260505223015 | 8 | 360 | 3.2 | 8.0 | 0.00 | 0.00 | 0.00 | 68 | 1006.1 |
| 20260505221516 | 8 | 360 | 0.0 | 6.4 | 0.00 | 0.00 | 0.00 | 68 | 1005.8 |
| 20260505220019 | 8 | 360 | 0.0 | 6.4 | 0.00 | 0.00 | 0.00 | 66 | 1005.9 |
| 20260505214516 | 8 | 360 | 1.6 | 8.0 | 0.00 | 0.00 | 0.00 | 69 | 1005.7 |
| 20260505213015 | 8 | 360 | 1.6 | 9.7 | 0.00 | 0.00 | 0.00 | 70 | 1005.7 |
| 20260505211516 | 7 | 360 | 1.6 | 8.0 | 0.00 | 0.00 | 0.00 | 72 | 1005.5 |
| 20260505210016 | 7 | 360 | 6.4 | 12.9 | 0.00 | 0.00 | 0.00 | 72 | 1005.7 |
| 20260505204515 | 7 | 360 | 8.0 | 12.9 | 0.00 | 0.03 | 0.00 | 68 | 1005.5 |
| 20260505203019 | 7 | 360 | 3.2 | 8.0 | 0.00 | 0.03 | 0.00 | 69 | 1005.6 |
| 20260505201516 | 7 | 360 | 3.2 | 12.9 | 0.00 | 0.03 | 0.00 | 71 | 1005.3 |
| 20260505200018 | 7 | 360 | 8.0 | 17.7 | 0.00 | 0.03 | 0.00 | 69 | 1005.2 |
| 20260505194516 | 7 | 360 | 8.0 | 17.7 | 0.00 | 0.03 | 0.00 | 70 | 1005.0 |
| 20260505193016 | 7 | 360 | 4.8 | 14.5 | 0.00 | 0.03 | 0.00 | 71 | 1004.6 |
| 20260505191516 | 7 | 360 | 11.3 | 17.7 | 0.00 | 0.03 | 0.00 | 70 | 1004.8 |
| 20260505190016 | 7 | 360 | 6.4 | 20.9 | 0.00 | 0.03 | 0.00 | 72 | 1004.4 |
| 20260505184516 | 7 | 360 | 14.5 | 19.3 | 0.00 | 0.03 | 0.00 | 71 | 1004.1 |
| 20260505183017 | 7 | 360 | 12.9 | 17.7 | 0.00 | 0.03 | 0.00 | 72 | 1004.0 |
| 20260505181516 | 7 | 360 | 11.3 | 17.7 | 0.00 | 0.03 | 0.00 | 71 | 1003.9 |
| 20260505180037 | 7 | 360 | 14.5 | 19.3 | 0.00 | 0.03 | 0.00 | 72 | 1003.7 |
| 20260505174516 | 7 | 360 | 17.7 | 22.5 | 0.00 | 0.05 | 0.00 | 71 | 1003.7 |
| 20260505173017 | 7 | 360 | 12.9 | 19.3 | 0.00 | 0.05 | 0.00 | 72 | 1003.3 |
| 20260505171516 | 7 | 360 | 16.1 | 22.5 | 0.00 | 0.05 | 0.00 | 72 | 1003.1 |
| 20260505170020 | 7 | 360 | 16.1 | 20.9 | 0.00 | 0.05 | 0.00 | 72 | 1003.2 |
| 20260505164516 | 7 | 360 | 14.5 | 22.5 | 0.00 | 0.05 | 0.00 | 72 | 1002.9 |
| 20260505163017 | 7 | 360 | 17.7 | 27.4 | 0.00 | 0.05 | 0.00 | 71 | 1003.0 |
| 20260505161516 | 7 | 360 | 17.7 | 32.2 | 0.00 | 0.05 | 0.00 | 70 | 1003.0 |
| 20260505153016 | 8 | 360 | 17.7 | 29.0 | 0.00 | 0.08 | 0.00 | 72 | 1002.0 |
| 20260505151516 | 8 | 360 | 17.7 | 29.0 | 0.00 | 0.08 | 0.00 | 73 | 1001.7 |
| 20260505124517 | 8 | 360 | 9.7 | 19.3 | 0.00 | 0.13 | 0.00 | 85 | 999.3 |
| 20260505123028 | 8 | 360 | 6.4 | 17.7 | 0.00 | 0.13 | 0.00 | 85 | 998.8 |
| 20260505121516 | 8 | 360 | 4.8 | 17.7 | 0.00 | 0.13 | 0.00 | 85 | 998.7 |
| 20260505120023 | 8 | 360 | 4.8 | 16.1 | 0.00 | 0.13 | 0.00 | 86 | 998.1 |
| 20260505114517 | 9 | 360 | 12.9 | 20.9 | 0.00 | 0.15 | 0.00 | 86 | 997.7 |
| 20260505113017 | 10 | 360 | 9.7 | 25.7 | 0.00 | 0.15 | 0.00 | 85 | 997.8 |
| 20260505111520 | 11 | 360 | 17.7 | 24.1 | 0.00 | 0.15 | 0.00 | 82 | 997.3 |
| 20260505101530 | 15 | 232 | 3.2 | 8.0 | 0.00 | 0.18 | 0.00 | 80 | 995.5 |
| 20260505100039 | 15 | 235 | 3.2 | 8.0 | 0.00 | 0.18 | 0.00 | 80 | 995.5 |
| 20260505094516 | 15 | 229 | 1.6 | 8.0 | 0.00 | 0.20 | 0.00 | 80 | 995.5 |
| 20260505093022 | 15 | 232 | 1.6 | 8.0 | 0.00 | 0.20 | 0.00 | 80 | 995.4 |
| 20260505091519 | 15 | 232 | 1.6 | 6.4 | 0.00 | 0.20 | 0.00 | 79 | 995.2 |
| 20260505090017 | 15 | 232 | 0.0 | 3.2 | 0.00 | 0.20 | 0.00 | 78 | 995.3 |
| 20260505084517 | 15 | 230 | 0.0 | 6.4 | 0.00 | 0.23 | 0.00 | 78 | 995.2 |
| 20260505083018 | 15 | 232 | 0.0 | 9.7 | 0.00 | 0.23 | 0.00 | 78 | 995.5 |
| 20260505081517 | 15 | 238 | 0.0 | 6.4 | 0.00 | 0.23 | 0.00 | 74 | 996.0 |
| 20260505080017 | 16 | 360 | 0.0 | 6.4 | 0.00 | 0.23 | 0.00 | 74 | 995.9 |
| 20260505074517 | 16 | 360 | 1.6 | 4.8 | 0.00 | 0.28 | 0.00 | 73 | 995.8 |
| 20260505073032 | 16 | 360 | 1.6 | 12.9 | 0.00 | 0.28 | 0.00 | 73 | 995.8 |
| 20260505071517 | 16 | 360 | 1.6 | 14.5 | 0.00 | 0.28 | 0.00 | 73 | 995.9 |
| 20260505070017 | 16 | 360 | 4.8 | 16.1 | 0.00 | 0.28 | 0.00 | 74 | 996.1 |
| 20260505064519 | 16 | 360 | 3.2 | 14.5 | 0.00 | 0.33 | 0.00 | 75 | 995.8 |
| 20260505063017 | 16 | 232 | 0.0 | 16.1 | 0.00 | 0.33 | 0.00 | 75 | 995.8 |
| 20260505061524 | 15 | 224 | 4.8 | 14.5 | 0.00 | 0.33 | 0.00 | 74 | 995.8 |
| 20260505060017 | 15 | 215 | 4.8 | 12.9 | 0.00 | 0.33 | 0.00 | 75 | 996.0 |